Showing default

CHECKMATE 1, 56168

Orbit data source: Space-Track

CHECKMATE 1, 56168 is a payload satellite owned by SDA (US) in LEO that was launched on Sun, 02 Apr 2023 UTC via an FALCON 9 launch vehicle from the Air Force Western Test Range (AFWTR). Payloads include a variety of satellites, spacecraft, and rockets equipped with specific instruments for various scientific and technological missions. These include communications satellites like Starlink; space stations such as the ISS; scientific satellites like the Hubble; Earth observation satellites from companies like Planet Labs, Umbra, and HawkEye 360; GPS; miniature CubeSats for education and research; and military/defense satellites.

Loading next visibility...
CHECKMATE 1 details
Identifier
56168, 2023-050G
Orbit
LEO
Last TLE update18 hours ago
Origin
Flag of USSDA (US)
ManufacturerYork Space Sys
MissionOperational Defense Communications
Bus & MotorS-CLASS, Unknown motor
Mass~300 kg wet, ~300 kg dry
Launch date (UTC)
2023-04-02 (2 years ago)
Launch vehicle
FALCON 9
Launch site
Air Force Western Test Range (AFWTR)
Object type
Payload
Rocket body
Debris
Shape & HBRBox + 1 Pan, 2 m
Radar Cross Section0.945 m², Large (>1 m²)

Expand to show TLE details & history

TLE from 18 hours ago
0 CHECKMATE 1
1 56168U 23050G   25014.89498539  .00000097  00000-0  76650-4 0  9997
2 56168  81.0026 208.8602 0010730 304.2846  55.7294 13.84846979 90357
Epoch: 2025-01-14T21:28Z
Definitive object data (Epoch: 2025-01-14T21:28:46.737Z)
Latitude0.00002°
Longitude132.07034°
Altitude945.181 km
Speed7.381 km/s
True Right ascension13h 55m 26s
True Declination0° 00' 00"
Sunlit
Object was in daylight at TLE epoch
Visualization TLE readout
Latitude43.75003°
Longitude140.04172°
Altitude954.834 km
Speed7.378 km/s
Apparent Right ascension09h 58m 54s
Apparent Declination29° 38' 05"
Sunlit
Object is in daylight
Visualization observer readout
Local Sidereal Time15:42:44
Azimuth291.407° WNW
Elevation21.365°
Doppler factor1
Orbital elements
Apogee altitude951.821 km
Perigee altitude936.108 km
Semi-major axis7,322.102 km
Eccentricity0.001073
Inclination81.0026°
RAAN208.8602°
Arg. of periapsis304.2846°
True anomaly55.83109°
Mean anomaly55.7294°
Eccentric anomaly55.78024°
Mean motion3.46409 °/min
BSTAR0.00007665
Orbital period103.92 mins
Loading maneuver chart data...
Loading historical data...
Loading historical data...
Loading historical data...
Loading historical data...
Loading historical data...
Loading historical data...
Loading historical data...

CHECKMATE 1 Visibility forecast

Observer location: undefined°, undefined

Span
Click to sort rows by Start time (UTC) header in descending order
Start Az.
Max El. time (UTC)
Max El. Az.
Max El.
End time (UTC)
End Az.
4 mins2025-01-15 15:01:56.611Z291.102° WNW2025-01-15 15:01:56.611Z291.102° WNW19.953°2025-01-15 15:05:56.611Z336.13° NNW
10 mins2025-01-16 00:04:56.611Z5.191° NNE2025-01-16 00:08:56.611Z61.574° ENE38.255°2025-01-16 00:14:56.611Z152.074° SSE
7 mins2025-01-16 01:50:56.611Z308.922° NW2025-01-16 01:53:56.611Z273.027° WNW20.103°2025-01-16 01:57:56.611Z229.344° WSW
10 mins2025-01-16 13:28:56.611Z186.591° SSW2025-01-16 13:32:56.611Z175.443° S44.53°2025-01-16 13:38:56.611Z10.228° NNE
|